TimeEST,TemperatureF,Dew PointF,Humidity,Sea Level PressureIn,VisibilityMPH,Wind Direction,Wind SpeedMPH,Gust SpeedMPH,PrecipitationIn,Events,Conditions,WindDirDegrees,DateUTC
12:53 AM,35.1,19.9,54,30.31,10.0,NNW,4.6,-,N/A,,Clear,330,2013-01-05 05:53:00
1:53 AM,33.1,21.0,61,30.31,10.0,Calm,Calm,-,N/A,,Clear,0,2013-01-05 06:53:00
2:53 AM,32.0,19.9,61,30.32,10.0,Calm,Calm,-,N/A,,Clear,0,2013-01-05 07:53:00
3:53 AM,33.1,19.0,56,30.31,10.0,Calm,Calm,-,N/A,,Clear,0,2013-01-05 08:53:00
4:53 AM,30.9,19.9,64,30.30,10.0,Calm,Calm,-,N/A,,Clear,0,2013-01-05 09:53:00
5:53 AM,30.0,19.9,66,30.31,10.0,Calm,Calm,-,N/A,,Clear,0,2013-01-05 10:53:00
6:53 AM,28.0,21.0,75,30.34,10.0,SSW,4.6,-,N/A,,Clear,210,2013-01-05 11:53:00
7:53 AM,26.1,21.0,81,30.36,10.0,SW,6.9,-,N/A,,Clear,220,2013-01-05 12:53:00
8:53 AM,32.0,23.0,69,30.38,10.0,SW,4.6,-,N/A,,Clear,230,2013-01-05 13:53:00
9:53 AM,39.0,23.0,53,30.38,10.0,SSW,4.6,-,N/A,,Clear,200,2013-01-05 14:53:00
10:53 AM,42.1,21.9,45,30.38,10.0,Variable,4.6,-,N/A,,Clear,0,2013-01-05 15:53:00
11:53 AM,45.0,21.0,39,30.35,10.0,SSW,5.8,-,N/A,,Clear,200,2013-01-05 16:53:00
12:53 PM,46.0,19.9,35,30.32,10.0,SSW,6.9,-,N/A,,Clear,210,2013-01-05 17:53:00
1:53 PM,48.0,21.0,34,30.30,10.0,SW,8.1,-,N/A,,Clear,220,2013-01-05 18:53:00
2:53 PM,48.0,21.9,36,30.28,10.0,WSW,6.9,-,N/A,,Clear,240,2013-01-05 19:53:00
3:53 PM,46.9,23.0,39,30.27,10.0,SW,6.9,-,N/A,,Clear,220,2013-01-05 20:53:00
4:53 PM,46.9,24.1,41,30.28,10.0,SW,4.6,-,N/A,,Clear,220,2013-01-05 21:53:00
5:53 PM,44.1,25.0,47,30.27,10.0,Calm,Calm,-,N/A,,Clear,0,2013-01-05 22:53:00
6:53 PM,44.1,27.0,51,30.29,10.0,Calm,Calm,-,N/A,,Overcast,0,2013-01-05 23:53:00
7:53 PM,43.0,28.0,56,30.30,10.0,Calm,Calm,-,N/A,,Mostly Cloudy,0,2013-01-06 00:53:00
8:53 PM,44.1,28.0,53,30.31,10.0,SW,8.1,-,0.00,,Overcast,220,2013-01-06 01:53:00
9:53 PM,44.1,28.9,55,30.27,10.0,SW,6.9,-,0.00,Rain,Light Rain,220,2013-01-06 02:53:00
10:53 PM,43.0,32.0,65,30.24,10.0,SSW,5.8,-,0.00,Rain,Light Rain,210,2013-01-06 03:53:00
11:53 PM,39.9,36.0,86,30.22,10.0,SW,5.8,-,0.00,Rain,Light Rain,220,2013-01-06 04:53:00